DW6366 Weather Reports


time (UTC)temp
C
wind
direction
speed
KPH
gust
KPH
rain 1hr
cm
rain 24hr
cm
rain mn
cm
humidity
%
barometer
mb
20260510140341 17 42 6.4 14.5 0.00 0.00 0.00 57 1013.1
20260510135351 17 1 4.8 14.5 0.00 0.00 0.00 58 1013.1
20260510134324 17 328 4.8 14.5 0.00 0.00 0.00 55 1013.3
20260510133336 18 32 3.2 12.9 0.00 0.00 0.00 55 1013.3
20260510132346 18 34 3.2 12.9 0.00 0.00 0.00 58 1013.5
20260510131332 17 323 6.4 19.3 0.00 0.00 0.00 57 1013.7
20260510130320 18 61 4.8 17.7 0.00 0.00 0.00 58 1013.8
20260510125331 18 242 3.2 11.3 0.00 0.00 0.00 61 1013.9
20260510124330 18 316 4.8 17.7 0.00 0.00 0.00 56 1014.0
20260510123327 18 63 4.8 14.5 0.00 0.00 0.00 60 1014.0
20260510122339 18 356 4.8 14.5 0.00 0.00 0.00 58 1014.2
20260510121331 18 10 3.2 16.1 0.00 0.00 0.00 60 1014.2
20260510120342 17 340 3.2 16.1 0.00 0.00 0.00 60 1014.3
20260510115344 16 100 6.4 16.1 0.00 0.00 0.00 62 1014.3
20260510114333 17 75 6.4 17.7 0.00 0.00 0.00 62 1014.3
20260510113344 17 53 4.8 16.1 0.00 0.00 0.00 60 1014.5
20260510112330 17 21 4.8 14.5 0.00 0.00 0.00 60 1014.5
20260510111321 18 65 4.8 12.9 0.00 0.00 0.00 59 1014.6
20260510110320 18 327 3.2 11.3 0.00 0.00 0.00 61 1014.8
20260510105336 17 27 3.2 16.1 0.00 0.00 0.00 62 1014.9
20260510104402 17 38 3.2 12.9 0.00 0.00 0.00 61 1014.8
20260510103317 17 351 6.4 19.3 0.00 0.00 0.00 60 1015.0
20260510102349 17 27 4.8 16.1 0.00 0.00 0.00 60 1015.0
20260510101320 17 286 4.8 14.5 0.00 0.00 0.00 62 1015.1
20260510100346 17 296 4.8 14.5 0.00 0.00 0.00 62 1015.2
20260510095330 16 57 4.8 19.3 0.00 0.00 0.00 62 1015.3
20260510094327 17 233 6.4 19.3 0.00 0.00 0.00 59 1015.2
20260510093336 17 307 6.4 16.1 0.00 0.00 0.00 58 1015.3
20260510092322 17 42 3.2 14.5 0.00 0.00 0.00 58 1015.4
20260510091321 17 358 6.4 19.3 0.00 0.00 0.00 56 1015.5
20260510090348 16 17 4.8 11.3 0.00 0.00 0.00 57 1015.5
20260510085351 16 350 4.8 17.7 0.00 0.00 0.00 55 1015.5
20260510084333 16 340 6.4 16.1 0.00 0.00 0.00 57 1015.6
20260510083343 16 234 4.8 11.3 0.00 0.00 0.00 60 1015.6
20260510082350 15 44 6.4 16.1 0.00 0.00 0.00 60 1015.9
20260510081334 15 336 4.8 14.5 0.00 0.00 0.00 66 1015.8
20260510080346 15 98 3.2 12.9 0.00 0.00 0.00 68 1015.8
20260510075322 15 45 4.8 16.1 0.00 0.00 0.00 68 1015.9
20260510074322 14 1 4.8 12.9 0.00 0.00 0.00 70 1015.9
20260510073404 14 327 6.4 17.7 0.00 0.00 0.00 71 1015.9
20260510072322 13 298 6.4 17.7 0.00 0.00 0.00 72 1016.0
20260510071348 13 7 3.2 16.1 0.00 0.00 0.00 75 1016.0
20260510070358 13 355 3.2 11.3 0.00 0.00 0.00 77 1016.1
20260510065348 12 23 4.8 11.3 0.00 0.00 0.00 79 1016.1
20260510064322 12 40 3.2 8.0 0.00 0.00 0.00 80 1016.1
20260510063326 11 59 3.2 14.5 0.00 0.00 0.00 82 1016.1
20260510062320 11 28 1.6 11.3 0.00 0.00 0.00 82 1016.1
20260510061354 11 21 3.2 12.9 0.00 0.00 0.00 83 1016.2
20260510060322 10 7 1.6 8.0 0.00 0.00 0.00 83 1016.2
20260510055333 10 2 3.2 6.4 0.00 0.00 0.00 83 1016.1
20260510054321 10 350 1.6 8.0 0.00 0.00 0.00 84 1016.1
20260510053322 10 32 3.2 9.7 0.00 0.00 0.00 84 1016.1
20260510052343 10 8 1.6 8.0 0.00 0.00 0.00 85 1016.1
20260510051345 10 357 3.2 11.3 0.00 0.00 0.00 85 1016.1
20260510050347 10 328 1.6 6.4 0.00 0.00 0.00 86 1016.1
20260510045352 10 2 3.2 6.4 0.00 0.00 0.00 86 1016.1
20260510044342 10 350 1.6 6.4 0.00 0.00 0.00 86 1016.1
20260510043323 10 21 3.2 9.7 0.00 0.00 0.00 86 1016.2
20260510042341 10 24 1.6 9.7 0.00 0.00 0.00 86 1016.1
20260510041321 10 15 3.2 9.7 0.00 0.00 0.00 86 1016.2
20260510040325 10 1 3.2 8.0 0.00 0.00 0.00 86 1016.0
20260510035335 10 13 1.6 6.4 0.00 0.00 0.00 86 1016.0
20260510034329 10 7 3.2 11.3 0.00 0.00 0.00 86 1015.9
20260510033321 10 93 1.6 6.4 0.00 0.00 0.00 85 1016.0
20260510032327 10 359 1.6 9.7 0.00 0.00 0.00 85 1016.0
20260510031323 10 357 3.2 6.4 0.00 0.00 0.00 85 1016.0
20260510030333 10 331 1.6 11.3 0.00 0.00 0.00 84 1016.1
20260510025353 10 9 1.6 8.0 0.00 0.00 0.00 84 1016.1
20260510024338 10 336 1.6 9.7 0.00 0.00 0.00 84 1016.2
20260510023337 10 15 1.6 8.0 0.00 0.00 0.00 84 1016.3
20260510022342 10 357 1.6 8.0 0.00 0.00 0.00 83 1016.3
20260510021329 11 356 1.6 14.5 0.00 0.00 0.00 83 1016.4
20260510020415 11 41 1.6 9.7 0.00 0.00 0.00 83 1016.5
20260510015336 11 25 1.6 9.7 0.00 0.00 0.00 83 1016.4
20260510014332 11 360 1.6 6.4 0.00 0.00 0.00 83 1016.4
20260510013330 11 31 1.6 4.8 0.00 0.00 0.00 83 1016.4
20260510012323 11 9 1.6 6.4 0.00 0.00 0.00 83 1016.3
20260510011339 11 11 1.6 3.2 0.00 0.00 0.00 83 1016.4
20260510010355 11 3 1.6 3.2 0.00 0.00 0.00 83 1016.4
20260510005342 11 23 1.6 4.8 0.00 0.00 0.00 82 1016.4
20260510004347 11 15 1.6 4.8 0.00 0.00 0.00 82 1016.6
20260510003321 11 338 1.6 4.8 0.00 0.00 0.00 82 1016.7
20260510002319 11 3 1.6 4.8 0.00 0.00 0.00 82 1016.7
20260510001327 11 6 0.0 3.2 0.00 0.00 0.00 82 1016.8
20260510000411 11 349 1.6 9.7 0.00 0.00 0.00 82 1016.9
20260509235359 12 17 1.6 4.8 0.00 0.00 0.00 81 1016.8
20260509234345 12 350 1.6 6.4 0.00 0.00 0.00 81 1016.7
20260509233355 12 325 1.6 6.4 0.00 0.00 0.00 80 1016.8
20260509232321 12 23 1.6 9.7 0.00 0.00 0.00 80 1016.8
20260509231406 12 18 1.6 8.0 0.00 0.00 0.00 80 1016.8
20260509230338 12 351 3.2 6.4 0.00 0.00 0.00 79 1016.9
20260509225348 12 18 3.2 8.0 0.00 0.00 0.00 79 1016.9
20260509224344 12 5 1.6 8.0 0.00 0.00 0.00 79 1016.9
20260509223336 12 340 1.6 8.0 0.00 0.00 0.00 79 1017.0
20260509222323 12 359 1.6 8.0 0.00 0.00 0.00 78 1017.0
20260509221330 12 352 1.6 3.2 0.00 0.00 0.00 77 1016.9
20260509220413 12 17 0.0 3.2 0.00 0.00 0.00 76 1017.0
20260509215355 12 17 0.0 3.2 0.00 0.00 0.00 75 1017.0
20260509214321 12 13 0.0 3.2 0.00 0.00 0.00 75 1016.9
20260509213345 13 14 1.6 4.8 0.00 0.00 0.00 74 1017.0
20260509212330 13 348 1.6 4.8 0.00 0.00 0.00 73 1016.9
20260509211349 13 357 1.6 8.0 0.00 0.00 0.00 73 1017.1
20260509210355 13 1 1.6 4.8 0.00 0.00 0.00 72 1017.0
20260509205405 13 14 0.0 4.8 0.00 0.00 0.00 71 1017.1
20260509204325 13 28 0.0 8.0 0.00 0.00 0.00 70 1017.0
20260509203320 13 5 0.0 6.4 0.00 0.00 0.00 70 1017.0
20260509202337 13 8 1.6 8.0 0.00 0.00 0.00 69 1016.8
20260509201343 14 13 1.6 4.8 0.00 0.00 0.00 68 1016.9
20260509200321 14 358 1.6 6.4 0.00 0.00 0.00 67 1017.0
20260509195408 15 7 0.0 3.2 0.00 0.00 0.00 67 1017.0
20260509194337 15 279 1.6 8.0 0.00 0.00 0.00 66 1016.9
20260509193342 15 342 1.6 8.0 0.00 0.00 0.00 65 1016.8
20260509192321 15 16 0.0 4.8 0.00 0.00 0.00 64 1016.9
20260509191352 16 32 0.0 3.2 0.00 0.00 0.00 63 1016.8
20260509190334 16 27 0.0 3.2 0.00 0.00 0.00 61 1016.7
20260509185329 16 19 0.0 3.2 0.00 0.00 0.00 60 1016.6
20260509184357 17 13 0.0 4.8 0.00 0.00 0.00 58 1016.6
20260509183325 17 30 0.0 3.2 0.00 0.00 0.00 56 1016.5
20260509182326 17 19 1.6 3.2 0.00 0.00 0.00 55 1016.4
20260509181337 17 15 0.0 6.4 0.00 0.00 0.00 55 1016.3
20260509180327 18 73 1.6 8.0 0.00 0.00 0.00 54 1016.3
20260509175341 18 63 0.0 9.7 0.00 0.00 0.00 54 1016.2
20260509174321 18 7 3.2 8.0 0.00 0.00 0.00 54 1016.3
20260509173333 18 358 1.6 8.0 0.00 0.00 0.00 54 1016.4
20260509172339 18 5 1.6 12.9 0.00 0.00 0.00 54 1016.5
20260509171329 18 47 3.2 12.9 0.00 0.00 0.00 52 1016.4
20260509170347 18 77 3.2 8.0 0.00 0.00 0.00 51 1016.4
20260509165323 18 19 1.6 6.4 0.00 0.00 0.00 50 1016.5
20260509164334 18 23 1.6 4.8 0.00 0.00 0.00 51 1016.5
20260509163347 19 297 3.2 8.0 0.00 0.00 0.00 50 1016.5
20260509162323 19 9 0.0 4.8 0.00 0.00 0.00 50 1016.4
20260509161350 19 58 0.0 14.5 0.00 0.00 0.00 49 1016.5
20260509160342 20 44 6.4 12.9 0.00 0.00 0.00 47 1016.5
20260509155327 21 110 3.2 8.0 0.00 0.00 0.00 47 1016.3
20260509154320 20 330 1.6 6.4 0.00 0.00 0.00 47 1016.4
20260509153326 21 213 3.2 8.0 0.00 0.00 0.00 45 1016.3
20260509152338 22 329 1.6 9.7 0.00 0.00 0.00 44 1016.3
20260509151323 21 5 3.2 11.3 0.00 0.00 0.00 45 1016.4
20260509150339 21 10 3.2 9.7 0.00 0.00 0.00 44 1016.6
20260509145336 22 21 1.6 8.0 0.00 0.00 0.00 45 1016.6
20260509144344 22 15 3.2 8.0 0.00 0.00 0.00 44 1016.6
20260509143320 22 85 4.8 11.3 0.00 0.00 0.00 44 1016.7
20260509142332 21 38 1.6 6.4 0.00 0.00 0.00 46 1016.7
20260509141328 22 19 3.2 12.9 0.00 0.00 0.00 45 1016.8